Private Wetterstation Wechselburg
Wetterdaten: Mittwoch, 30.12.2020
Datum Zeit Temp. +2m Bodentemp. Temp.+5cm Temp. Wind Windchill X Diff Temp. Feuchte +2m Feuchte +5cm Luftdruck Regen Wind Richtung Richtung Sonnenschein Taupunkt Windchill Windben
30.12.2020 00:00 1,3 C 4,4 C 0,6 C 1,1 C 0,7 C 0,0 C 81 % 88 % 1001,9 hPa 0,0 l/m 0,3 km/h (0 Bft) O-NO 67 0 min -1,6 C 0,7 C 0,0 km/h (0 Bft)
30.12.2020 00:05 1,5 C 4,4 C 0,6 C 1,3 C 0,9 C 0,0 C 82 % 88 % 1001,9 hPa 0,0 l/m 0,3 km/h (0 Bft) S 180 0 min -1,2 C 0,9 C 1,8 km/h (1 Bft)
30.12.2020 00:11 1,3 C 4,4 C 0,4 C 1,2 C 0,9 C 0,0 C 81 % 88 % 1002,1 hPa 0,0 l/m 0,3 km/h (0 Bft) N 0 0 min -1,6 C 0,9 C 0,0 km/h (0 Bft)
30.12.2020 00:26 1,5 C 4,4 C 0,9 C 1,4 C 1,3 C 0,0 C 82 % 88 % 1002,1 hPa 0,0 l/m 0,8 km/h (0 Bft) O-NO 67 0 min -1,2 C 1,3 C 2,1 km/h (1 Bft)
30.12.2020 00:27 1,5 C 4,4 C 0,9 C 1,4 C 1,3 C 0,0 C 82 % 88 % 1002,1 hPa 0,0 l/m 0,8 km/h (0 Bft) O-NO 67 0 min -1,2 C 1,3 C 2,1 km/h (1 Bft)
30.12.2020 00:30 1,6 C 4,4 C 1,0 C 1,6 C 1,5 C 0,0 C 82 % 88 % 1002,1 hPa 0,0 l/m 0,6 km/h (0 Bft) S 180 0 min -1,1 C 1,5 C 1,8 km/h (1 Bft)
30.12.2020 00:35 1,5 C 4,4 C 0,7 C 1,5 C 1,4 C 0,0 C 82 % 87 % 1002,1 hPa 0,0 l/m 0,5 km/h (0 Bft) S 180 0 min -1,2 C 1,4 C 0,0 km/h (0 Bft)
30.12.2020 00:40 1,4 C 4,4 C 0,7 C 1,3 C 1,2 C 0,0 C 82 % 88 % 1002,1 hPa 0,0 l/m 0,5 km/h (0 Bft) S-SW 202 0 min -1,3 C 1,2 C 1,6 km/h (1 Bft)
30.12.2020 00:45 1,5 C 4,4 C 0,7 C 1,4 C 1,2 C 0,0 C 82 % 88 % 1002,1 hPa 0,0 l/m 0,2 km/h (0 Bft) S-SW 202 0 min -1,2 C 1,2 C 0,0 km/h (0 Bft)
30.12.2020 00:50 1,5 C 4,4 C 0,9 C 1,5 C 1,4 C 0,0 C 82 % 88 % 1002,2 hPa 0,0 l/m 0,2 km/h (0 Bft) O-NO 67 0 min -1,2 C 1,4 C 0,0 km/h (0 Bft)
30.12.2020 00:55 1,6 C 4,4 C 1,1 C 1,6 C 1,5 C 0,0 C 82 % 88 % 1002,2 hPa 0,0 l/m 0,3 km/h (0 Bft) S 180 0 min -1,1 C 1,5 C 3,2 km/h (1 Bft)
30.12.2020 01:00 1,7 C 4,4 C 1,1 C 1,7 C 1,6 C 0,0 C 83 % 88 % 1002,2 hPa 0,0 l/m 0,5 km/h (0 Bft) O-NO 67 0 min -0,9 C 1,6 C 0,0 km/h (0 Bft)
30.12.2020 01:05 1,9 C 4,4 C 1,2 C 1,8 C 1,7 C 0,0 C 82 % 88 % 1002,2 hPa 0,0 l/m 0,5 km/h (0 Bft) S 180 0 min -0,8 C 1,7 C 0,0 km/h (0 Bft)
30.12.2020 01:10 1,9 C 4,4 C 1,1 C 1,8 C 1,5 C 0,0 C 82 % 88 % 1002,2 hPa 0,0 l/m 0,2 km/h (0 Bft) W 270 0 min -0,8 C 1,5 C 0,0 km/h (0 Bft)
30.12.2020 01:15 1,8 C 4,4 C 1,0 C 1,7 C 1,4 C 0,0 C 82 % 88 % 1002,2 hPa 0,0 l/m 0,0 km/h (0 Bft) NO 45 0 min -0,9 C 1,4 C 0,0 km/h (0 Bft)
30.12.2020 01:20 1,9 C 4,4 C 0,8 C 1,7 C 1,3 C 0,0 C 82 % 87 % 1002,2 hPa 0,0 l/m 0,2 km/h (0 Bft) O-NO 67 0 min -0,8 C 1,3 C 1,9 km/h (1 Bft)
30.12.2020 01:25 1,8 C 4,4 C 0,7 C 1,6 C 1,2 C 0,0 C 82 % 87 % 1002,2 hPa 0,0 l/m 0,2 km/h (0 Bft) O-NO 67 0 min -0,9 C 1,2 C 0,0 km/h (0 Bft)
30.12.2020 01:30 1,7 C 4,4 C 0,5 C 1,5 C 1,1 C 0,0 C 82 % 87 % 1002,3 hPa 0,0 l/m 0,2 km/h (0 Bft) O-NO 67 0 min -1,0 C 1,1 C 0,0 km/h (0 Bft)
30.12.2020 01:35 1,7 C 4,4 C 0,5 C 1,5 C 1,0 C 0,0 C 82 % 88 % 1002,3 hPa 0,0 l/m 0,2 km/h (0 Bft) O-NO 67 0 min -1,0 C 1,0 C 0,0 km/h (0 Bft)
30.12.2020 01:40 1,6 C 4,4 C 0,4 C 1,4 C 1,0 C 0,0 C 82 % 88 % 1002,3 hPa 0,0 l/m 0,0 km/h (0 Bft) O-NO 67 0 min -1,1 C 1,0 C 0,0 km/h (0 Bft)
30.12.2020 01:45 1,7 C 4,4 C 0,3 C 1,4 C 0,9 C 0,0 C 82 % 88 % 1002,3 hPa 0,0 l/m 0,0 km/h (0 Bft) O-NO 67 0 min -1,0 C 0,9 C 0,0 km/h (0 Bft)
30.12.2020 01:50 1,5 C 4,4 C 0,1 C 1,2 C 0,6 C 0,0 C 82 % 88 % 1002,2 hPa 0,0 l/m 0,0 km/h (0 Bft) O-NO 67 0 min -1,2 C 0,6 C 0,0 km/h (0 Bft)
30.12.2020 01:55 1,5 C 4,4 C -0,2 C 1,1 C 0,3 C 0,0 C 82 % 88 % 1002,2 hPa 0,0 l/m 0,0 km/h (0 Bft) O-NO 67 0 min -1,2 C 0,3 C 0,0 km/h (0 Bft)
30.12.2020 02:00 1,2 C 4,4 C -0,4 C 0,8 C -0,1 C 0,0 C 82 % 88 % 1002,2 hPa 0,0 l/m 0,0 km/h (0 Bft) O-NO 67 0 min -1,5 C -0,1 C 0,0 km/h (0 Bft)
30.12.2020 02:05 1,2 C 4,4 C -0,4 C 0,7 C -0,4 C 0,0 C 82 % 88 % 1002,2 hPa 0,0 l/m 0,0 km/h (0 Bft) O-NO 67 0 min -1,5 C -0,4 C 0,0 km/h (0 Bft)
30.12.2020 02:10 1,2 C 4,4 C -0,4 C 0,7 C -0,4 C 0,0 C 82 % 88 % 1002,3 hPa 0,0 l/m 0,0 km/h (0 Bft) O-NO 67 0 min -1,5 C -0,4 C 0,0 km/h (0 Bft)
30.12.2020 02:15 0,9 C 4,4 C -0,4 C 0,5 C -0,3 C 0,0 C 82 % 89 % 1002,3 hPa 0,0 l/m 0,0 km/h (0 Bft) O-NO 67 0 min -1,8 C -0,3 C 0,0 km/h (0 Bft)
30.12.2020 02:20 0,9 C 4,3 C -0,3 C 0,6 C -0,1 C 0,0 C 82 % 89 % 1002,3 hPa 0,0 l/m 0,0 km/h (0 Bft) O-NO 67 0 min -1,8 C -0,1 C 0,0 km/h (0 Bft)
30.12.2020 02:25 1,1 C 4,4 C 0,1 C 0,8 C 0,3 C 0,0 C 83 % 90 % 1002,3 hPa 0,0 l/m 0,2 km/h (0 Bft) W-SW 247 0 min -1,5 C 0,3 C 0,0 km/h (0 Bft)
30.12.2020 02:30 1,1 C 4,4 C -0,1 C 0,8 C 0,3 C 0,0 C 83 % 89 % 1002,4 hPa 0,0 l/m 0,3 km/h (0 Bft) S 180 0 min -1,5 C 0,3 C 0,0 km/h (0 Bft)
30.12.2020 02:35 1,1 C 4,4 C -0,3 C 0,8 C 0,1 C 0,0 C 83 % 89 % 1002,4 hPa 0,0 l/m 0,5 km/h (0 Bft) S 180 0 min -1,5 C 0,1 C 3,5 km/h (1 Bft)
30.12.2020 02:40 1,1 C 4,4 C -0,2 C 0,8 C 0,1 C 0,0 C 83 % 90 % 1002,4 hPa 0,0 l/m 1,0 km/h (0 Bft) O-SO 112 0 min -1,5 C 0,1 C 1,6 km/h (1 Bft)
30.12.2020 02:45 1,2 C 4,4 C -0,1 C 0,9 C 0,4 C 0,0 C 83 % 90 % 1002,4 hPa 0,0 l/m 1,4 km/h (1 Bft) SW 225 0 min -1,4 C 0,4 C 0,0 km/h (0 Bft)
30.12.2020 02:50 1,2 C 4,4 C -0,2 C 0,9 C 0,3 C 0,0 C 83 % 89 % 1002,6 hPa 0,0 l/m 1,0 km/h (0 Bft) SW 225 0 min -1,4 C 0,3 C 2,6 km/h (1 Bft)
30.12.2020 02:55 1,0 C 4,4 C -0,4 C 0,6 C -0,1 C 0,0 C 83 % 90 % 1002,6 hPa 0,0 l/m 0,3 km/h (0 Bft) S 180 0 min -1,6 C -0,1 C 2,1 km/h (1 Bft)
30.12.2020 03:00 1,1 C 4,3 C -0,5 C 0,7 C -0,1 C 0,0 C 83 % 89 % 1002,6 hPa 0,0 l/m 0,6 km/h (0 Bft) S-SO 157 0 min -1,5 C -0,1 C 4,2 km/h (1 Bft)
30.12.2020 03:05 1,1 C 4,3 C -0,5 C 0,8 C 0,1 C 0,0 C 83 % 90 % 1002,6 hPa 0,0 l/m 1,0 km/h (0 Bft) S-SW 202 0 min -1,5 C 0,1 C 2,1 km/h (1 Bft)
30.12.2020 03:10 1,1 C 4,2 C -0,2 C 0,8 C 0,2 C 0,0 C 83 % 90 % 1002,3 hPa 0,0 l/m 1,0 km/h (0 Bft) O-NO 67 0 min -1,5 C 0,2 C 1,9 km/h (1 Bft)
30.12.2020 03:15 1,3 C 4,2 C 0,3 C 1,0 C 0,4 C 0,0 C 84 % 90 % 1002,3 hPa 0,0 l/m 1,1 km/h (1 Bft) NO 45 0 min -1,1 C 0,4 C 7,4 km/h (2 Bft)
30.12.2020 03:20 1,6 C 4,2 C 0,5 C 1,3 C 0,8 C 0,0 C 84 % 90 % 1002,3 hPa 0,0 l/m 2,4 km/h (1 Bft) S-SO 157 0 min -0,8 C 0,8 C 7,6 km/h (2 Bft)
30.12.2020 03:25 2,0 C 4,2 C 0,7 C 1,6 C 0,7 C 0,0 C 84 % 90 % 1002,3 hPa 0,0 l/m 3,2 km/h (1 Bft) N-NW 337 0 min -0,4 C 0,7 C 8,2 km/h (2 Bft)
30.12.2020 03:30 2,1 C 4,2 C 0,8 C 1,8 C 1,1 C 0,0 C 84 % 89 % 1002,3 hPa 0,0 l/m 2,7 km/h (1 Bft) W-SW 247 0 min -0,3 C 1,1 C 2,6 km/h (1 Bft)
30.12.2020 03:35 2,3 C 4,2 C 0,9 C 2,0 C 1,5 C 0,0 C 83 % 89 % 1002,3 hPa 0,0 l/m 2,3 km/h (1 Bft) S-SO 157 0 min -0,3 C 1,5 C 6,0 km/h (2 Bft)
30.12.2020 03:40 2,5 C 4,2 C 1,0 C 2,0 C 1,1 C 0,0 C 83 % 89 % 1002,3 hPa 0,0 l/m 3,2 km/h (1 Bft) S-SO 157 0 min -0,1 C 1,1 C 6,3 km/h (2 Bft)
30.12.2020 03:45 2,7 C 4,2 C 1,1 C 2,1 C 0,8 C 0,0 C 82 % 89 % 1002,3 hPa 0,0 l/m 4,0 km/h (1 Bft) O-SO 112 0 min -0,1 C 0,8 C 13,2 km/h (3 Bft)
30.12.2020 03:50 2,7 C 4,2 C 1,0 C 2,2 C 1,3 C 0,0 C 82 % 88 % 1002,4 hPa 0,0 l/m 3,1 km/h (1 Bft) SW 225 0 min -0,1 C 1,3 C 3,1 km/h (1 Bft)
30.12.2020 03:55 2,4 C 4,2 C 0,8 C 2,0 C 1,3 C 0,0 C 81 % 88 % 1002,4 hPa 0,0 l/m 1,9 km/h (1 Bft) S 180 0 min -0,5 C 1,3 C 3,4 km/h (1 Bft)
30.12.2020 04:00 2,5 C 4,2 C 0,8 C 2,1 C 1,2 C 0,0 C 81 % 88 % 1002,4 hPa 0,0 l/m 2,1 km/h (1 Bft) W-SW 247 0 min -0,4 C 1,2 C 3,2 km/h (1 Bft)
30.12.2020 04:05 2,4 C 4,2 C 0,9 C 2,0 C 1,1 C 0,0 C 81 % 88 % 1002,4 hPa 0,0 l/m 2,1 km/h (1 Bft) S 180 0 min -0,5 C 1,1 C 1,9 km/h (1 Bft)
30.12.2020 04:10 2,4 C 4,2 C 1,0 C 1,9 C 1,0 C 0,0 C 81 % 88 % 1002,8 hPa 0,0 l/m 1,6 km/h (1 Bft) W 270 0 min -0,5 C 1,0 C 4,3 km/h (1 Bft)
30.12.2020 04:15 2,3 C 4,2 C 1,0 C 1,8 C 0,9 C 0,0 C 81 % 88 % 1002,8 hPa 0,0 l/m 1,6 km/h (1 Bft) S-SO 157 0 min -0,6 C 0,9 C 5,6 km/h (1 Bft)
30.12.2020 04:20 2,3 C 4,2 C 1,0 C 1,9 C 1,0 C 0,0 C 81 % 88 % 1002,8 hPa 0,0 l/m 1,9 km/h (1 Bft) S 180 0 min -0,6 C 1,0 C 5,0 km/h (1 Bft)
30.12.2020 04:25 2,3 C 4,2 C 1,0 C 1,8 C 0,9 C 0,0 C 81 % 88 % 1002,8 hPa 0,0 l/m 1,9 km/h (1 Bft) SO 135 0 min -0,6 C 0,9 C 4,7 km/h (1 Bft)
30.12.2020 04:30 2,3 C 4,2 C 0,9 C 1,8 C 0,7 C 0,0 C 81 % 88 % 1003,0 hPa 0,0 l/m 2,9 km/h (1 Bft) S-SW 202 0 min -0,6 C 0,7 C 6,1 km/h (2 Bft)
30.12.2020 04:35 2,4 C 4,2 C 1,0 C 1,6 C -0,1 C 0,0 C 81 % 88 % 1003,0 hPa 0,0 l/m 4,7 km/h (1 Bft) SW 225 0 min -0,5 C -1,6 C 6,8 km/h (2 Bft)
30.12.2020 04:40 2,4 C 4,2 C 0,9 C 1,7 C 0,4 C 0,0 C 81 % 87 % 1003,0 hPa 0,0 l/m 3,9 km/h (1 Bft) SW 225 0 min -0,5 C 0,4 C 2,1 km/h (1 Bft)
30.12.2020 04:45 2,3 C 4,2 C 0,7 C 1,8 C 0,9 C 0,0 C 80 % 87 % 1003,0 hPa 0,0 l/m 1,6 km/h (1 Bft) O-SO 112 0 min -0,8 C 0,9 C 2,3 km/h (1 Bft)
30.12.2020 04:50 2,1 C 4,2 C 0,4 C 1,6 C 0,7 C 0,0 C 80 % 87 % 1002,8 hPa 0,0 l/m 0,8 km/h (0 Bft) O-NO 67 0 min -1,0 C 0,7 C 0,0 km/h (0 Bft)
30.12.2020 04:55 2,0 C 4,2 C 0,3 C 1,5 C 0,5 C 0,0 C 81 % 88 % 1002,8 hPa 0,0 l/m 2,3 km/h (1 Bft) SO 135 0 min -0,9 C 0,5 C 3,7 km/h (1 Bft)
30.12.2020 05:00 2,1 C 4,2 C 0,3 C 1,5 C 0,2 C 0,0 C 81 % 88 % 1002,8 hPa 0,0 l/m 3,1 km/h (1 Bft) O-NO 67 0 min -0,8 C 0,2 C 0,0 km/h (0 Bft)
30.12.2020 05:05 2,1 C 4,2 C 0,3 C 1,6 C 0,6 C 0,0 C 81 % 88 % 1002,8 hPa 0,0 l/m 2,4 km/h (1 Bft) W-SW 247 0 min -0,8 C 0,6 C 1,8 km/h (1 Bft)
30.12.2020 05:10 2,1 C 4,2 C 0,3 C 1,6 C 0,6 C 0,0 C 81 % 88 % 1003,1 hPa 0,0 l/m 2,4 km/h (1 Bft) W-SW 247 0 min -0,8 C 0,6 C 1,8 km/h (1 Bft)
30.12.2020 05:15 1,7 C 4,2 C 0,1 C 1,1 C 0,0 C 0,0 C 81 % 88 % 1003,1 hPa 0,0 l/m 0,3 km/h (0 Bft) N-NO 22 0 min -1,2 C 0,0 C 0,0 km/h (0 Bft)
30.12.2020 05:20 1,6 C 4,2 C -0,2 C 1,0 C -0,3 C 0,0 C 81 % 88 % 1003,1 hPa 0,0 l/m 0,3 km/h (0 Bft) SW 225 0 min -1,3 C -0,3 C 2,4 km/h (1 Bft)
30.12.2020 05:25 1,5 C 4,2 C -0,4 C 0,8 C -0,5 C 0,0 C 80 % 88 % 1003,1 hPa 0,0 l/m 0,2 km/h (0 Bft) SW 225 0 min -1,6 C -0,5 C 0,0 km/h (0 Bft)
30.12.2020 05:30 1,3 C 4,2 C -0,6 C 0,6 C -0,8 C 0,0 C 80 % 88 % 1003,1 hPa 0,0 l/m 0,2 km/h (0 Bft) SW 225 0 min -1,8 C -0,8 C 0,0 km/h (0 Bft)
30.12.2020 05:35 0,9 C 4,3 C -0,7 C 0,3 C -1,0 C 0,0 C 81 % 88 % 1003,1 hPa 0,0 l/m 0,0 km/h (0 Bft) N-NW 337 0 min -2,0 C -1,0 C 0,0 km/h (0 Bft)
30.12.2020 05:40 0,8 C 4,3 C -0,7 C 0,3 C -0,8 C 0,0 C 81 % 88 % 1003,1 hPa 0,0 l/m 0,0 km/h (0 Bft) N-NW 337 0 min -2,1 C -0,8 C 0,0 km/h (0 Bft)
30.12.2020 05:45 0,9 C 4,3 C -0,6 C 0,4 C -0,7 C 0,0 C 81 % 89 % 1003,1 hPa 0,0 l/m 0,0 km/h (0 Bft) S-SO 157 0 min -2,0 C -0,7 C 0,0 km/h (0 Bft)
30.12.2020 05:50 0,8 C 4,3 C -0,5 C 0,4 C -0,5 C 0,0 C 82 % 89 % 1003,1 hPa 0,0 l/m 0,0 km/h (0 Bft) S 180 0 min -1,9 C -0,5 C 0,0 km/h (0 Bft)
30.12.2020 05:55 0,9 C 4,3 C -0,6 C 0,4 C -0,5 C 0,0 C 82 % 89 % 1003,1 hPa 0,0 l/m 0,3 km/h (0 Bft) S-SO 157 0 min -1,8 C -0,5 C 0,0 km/h (0 Bft)
30.12.2020 06:00 0,9 C 4,3 C -0,8 C 0,4 C -0,7 C 0,0 C 83 % 89 % 1003,1 hPa 0,0 l/m 0,3 km/h (0 Bft) SO 135 0 min -1,7 C -0,7 C 0,0 km/h (0 Bft)
30.12.2020 06:05 0,7 C 4,3 C -1,1 C 0,1 C -1,1 C 0,0 C 82 % 89 % 1003,1 hPa 0,0 l/m 0,3 km/h (0 Bft) S 180 0 min -2,0 C -1,1 C 0,0 km/h (0 Bft)
30.12.2020 06:10 0,5 C 4,3 C -1,1 C -0,1 C -1,2 C 0,0 C 82 % 89 % 1003,5 hPa 0,0 l/m 0,2 km/h (0 Bft) S 180 0 min -2,2 C -1,2 C 0,0 km/h (0 Bft)
30.12.2020 06:15 0,3 C 4,4 C -1,2 C -0,3 C -1,5 C 0,0 C 82 % 90 % 1003,5 hPa 0,0 l/m 0,0 km/h (0 Bft) S 180 0 min -2,4 C -1,5 C 0,0 km/h (0 Bft)
30.12.2020 06:20 0,1 C 4,4 C -1,3 C -0,5 C -1,7 C 0,0 C 82 % 90 % 1003,5 hPa 0,0 l/m 0,0 km/h (0 Bft) S 180 0 min -2,6 C -1,7 C 0,0 km/h (0 Bft)
30.12.2020 06:25 -0,1 C 4,4 C -1,5 C -0,7 C -1,8 C 0,0 C 82 % 90 % 1003,5 hPa 0,0 l/m 0,0 km/h (0 Bft) S 180 0 min -2,8 C -1,8 C 0,0 km/h (0 Bft)
30.12.2020 06:30 -0,1 C 4,4 C -1,7 C -0,7 C -1,9 C 0,0 C 82 % 90 % 1003,2 hPa 0,0 l/m 0,0 km/h (0 Bft) S 180 0 min -2,8 C -1,9 C 0,0 km/h (0 Bft)
30.12.2020 06:35 -0,3 C 4,4 C -1,8 C -0,9 C -2,0 C 0,0 C 83 % 89 % 1003,2 hPa 0,0 l/m 0,0 km/h (0 Bft) S 180 0 min -2,8 C -2,0 C 0,0 km/h (0 Bft)
30.12.2020 06:40 -0,4 C 4,4 C -1,9 C -1,0 C -2,1 C 0,0 C 83 % 90 % 1003,2 hPa 0,0 l/m 0,0 km/h (0 Bft) S 180 0 min -2,9 C -2,1 C 0,0 km/h (0 Bft)
30.12.2020 06:45 -0,5 C 4,4 C -2,1 C -1,1 C -2,3 C 0,0 C 83 % 90 % 1003,2 hPa 0,0 l/m 0,0 km/h (0 Bft) S 180 0 min -3,0 C -2,3 C 0,0 km/h (0 Bft)
30.12.2020 06:50 -0,5 C 4,4 C -2,1 C -1,1 C -2,3 C 0,0 C 83 % 90 % 1003,9 hPa 0,0 l/m 0,0 km/h (0 Bft) S 180 0 min -3,0 C -2,3 C 0,0 km/h (0 Bft)
30.12.2020 06:55 -0,7 C 4,4 C -2,1 C -1,2 C -2,3 C 0,0 C 83 % 90 % 1003,9 hPa 0,0 l/m 0,0 km/h (0 Bft) S 180 0 min -3,2 C -2,3 C 0,0 km/h (0 Bft)
30.12.2020 07:00 -0,8 C 4,4 C -2,2 C -1,3 C -2,3 C 0,0 C 83 % 90 % 1003,9 hPa 0,0 l/m 0,0 km/h (0 Bft) S 180 0 min -3,3 C -2,3 C 0,0 km/h (0 Bft)
30.12.2020 07:05 -0,9 C 4,4 C -2,3 C -1,4 C -2,3 C 0,0 C 84 % 90 % 1003,9 hPa 0,0 l/m 0,0 km/h (0 Bft) S 180 0 min -3,3 C -2,3 C 0,0 km/h (0 Bft)
30.12.2020 07:10 -0,9 C 4,4 C -2,4 C -1,4 C -2,4 C 0,0 C 84 % 90 % 1003,8 hPa 0,0 l/m 0,0 km/h (0 Bft) S 180 0 min -3,3 C -2,4 C 0,0 km/h (0 Bft)
30.12.2020 07:15 -0,9 C 4,4 C -2,5 C -1,4 C -2,3 C 0,0 C 84 % 91 % 1003,8 hPa 0,0 l/m 0,0 km/h (0 Bft) S 180 0 min -3,3 C -2,3 C 0,0 km/h (0 Bft)
30.12.2020 07:20 -1,1 C 4,4 C -2,5 C -1,5 C -2,4 C 0,0 C 83 % 91 % 1003,8 hPa 0,0 l/m 0,0 km/h (0 Bft) S 180 0 min -3,6 C -2,4 C 0,0 km/h (0 Bft)
30.12.2020 07:25 -1,2 C 4,4 C -2,5 C -1,6 C -2,4 C 0,0 C 84 % 91 % 1003,8 hPa 0,0 l/m 0,0 km/h (0 Bft) S 180 0 min -3,5 C -2,4 C 0,0 km/h (0 Bft)
30.12.2020 07:30 -1,3 C 4,4 C -2,5 C -1,7 C -2,4 C 0,0 C 84 % 91 % 1004,2 hPa 0,0 l/m 0,0 km/h (0 Bft) S 180 0 min -3,6 C -2,4 C 0,0 km/h (0 Bft)
30.12.2020 07:35 -1,4 C 4,5 C -2,6 C -1,9 C -2,8 C 0,0 C 84 % 91 % 1004,2 hPa 0,0 l/m 0,0 km/h (0 Bft) S 180 0 min -3,7 C -2,8 C 0,0 km/h (0 Bft)
30.12.2020 07:40 -1,3 C 4,5 C -2,6 C -1,8 C -2,8 C 0,0 C 84 % 91 % 1004,2 hPa 0,0 l/m 0,0 km/h (0 Bft) S 180 0 min -3,6 C -2,8 C 0,0 km/h (0 Bft)
30.12.2020 07:45 -1,5 C 4,5 C -2,7 C -2,0 C -2,9 C 0,0 C 84 % 91 % 1004,2 hPa 0,0 l/m 0,0 km/h (0 Bft) S 180 0 min -3,8 C -2,9 C 0,0 km/h (0 Bft)
30.12.2020 07:50 -1,6 C 4,5 C -2,8 C -2,1 C -3,1 C 0,0 C 84 % 91 % 1004,2 hPa 0,0 l/m 0,0 km/h (0 Bft) S 180 0 min -3,9 C -3,1 C 0,0 km/h (0 Bft)
30.12.2020 07:55 -1,7 C 4,5 C -2,9 C -2,2 C -3,1 C 0,0 C 84 % 91 % 1004,2 hPa 0,0 l/m 0,0 km/h (0 Bft) S 180 0 min -4,0 C -3,1 C 0,0 km/h (0 Bft)
30.12.2020 08:00 -1,7 C 4,5 C -2,9 C -2,2 C -3,1 C 0,0 C 85 % 91 % 1004,2 hPa 0,0 l/m 0,0 km/h (0 Bft) S 180 0 min -3,9 C -3,1 C 0,0 km/h (0 Bft)
30.12.2020 08:05 -1,7 C 4,5 C -2,8 C -2,1 C -3,0 C 0,0 C 85 % 91 % 1004,2 hPa 0,0 l/m 0,0 km/h (0 Bft) S 180 0 min -3,9 C -3,0 C 0,0 km/h (0 Bft)
30.12.2020 08:10 -1,7 C 4,3 C -2,9 C -2,1 C -2,9 C 0,0 C 85 % 91 % 1004,2 hPa 0,0 l/m 0,0 km/h (0 Bft) S 180 0 min -3,9 C -2,9 C 0,0 km/h (0 Bft)
30.12.2020 08:15 -1,8 C 4,3 C -3,0 C -2,2 C -2,9 C 0,0 C 85 % 91 % 1004,2 hPa 0,0 l/m 0,0 km/h (0 Bft) S 180 0 min -4,0 C -2,9 C 0,0 km/h (0 Bft)
30.12.2020 08:20 -1,7 C 4,3 C -3,0 C -2,1 C -3,0 C 0,0 C 85 % 91 % 1004,2 hPa 0,0 l/m 0,0 km/h (0 Bft) S 180 0 min -3,9 C -3,0 C 0,0 km/h (0 Bft)
30.12.2020 08:25 -1,9 C 4,3 C -3,1 C -2,3 C -3,1 C 0,0 C 85 % 91 % 1004,2 hPa 0,0 l/m 0,0 km/h (0 Bft) S 180 0 min -4,1 C -3,1 C 0,0 km/h (0 Bft)
30.12.2020 08:30 -1,9 C 4,3 C -3,1 C -2,3 C -3,2 C 0,0 C 85 % 92 % 1004,6 hPa 0,0 l/m 0,0 km/h (0 Bft) S 180 0 min -4,1 C -3,2 C 0,0 km/h (0 Bft)
30.12.2020 08:35 -2,0 C 4,3 C -3,1 C -2,4 C -3,1 C 0,0 C 85 % 92 % 1004,6 hPa 0,0 l/m 0,0 km/h (0 Bft) S 180 0 min -4,2 C -3,1 C 0,0 km/h (0 Bft)
30.12.2020 08:40 -2,0 C 4,3 C -3,2 C -2,4 C -3,1 C 0,0 C 86 % 92 % 1004,6 hPa 0,0 l/m 0,0 km/h (0 Bft) S 180 0 min -4,0 C -3,1 C 0,0 km/h (0 Bft)
30.12.2020 08:45 -2,0 C 4,3 C -3,1 C -2,4 C -3,1 C 0,0 C 86 % 92 % 1004,6 hPa 0,0 l/m 0,0 km/h (0 Bft) S 180 0 min -4,0 C -3,1 C 0,0 km/h (0 Bft)
30.12.2020 08:50 -1,9 C 4,3 C -3,1 C -2,2 C -2,9 C 0,0 C 86 % 92 % 1004,8 hPa 0,0 l/m 0,2 km/h (0 Bft) NO 45 0 min -3,9 C -2,9 C 0,0 km/h (0 Bft)
30.12.2020 08:55 -1,9 C 4,3 C -2,9 C -2,1 C -2,5 C 0,0 C 86 % 92 % 1004,8 hPa 0,0 l/m 0,2 km/h (0 Bft) NO 45 0 min -3,9 C -2,5 C 0,0 km/h (0 Bft)
30.12.2020 09:00 -1,7 C 4,3 C -2,9 C -1,9 C -2,3 C 0,0 C 87 % 92 % 1004,8 hPa 0,0 l/m 0,0 km/h (0 Bft) NO 45 0 min -3,6 C -2,3 C 0,0 km/h (0 Bft)
30.12.2020 09:05 -1,6 C 4,3 C -2,7 C -1,8 C -2,2 C 0,0 C 87 % 92 % 1004,8 hPa 0,0 l/m 0,0 km/h (0 Bft) W-SW 247 0 min -3,5 C -2,2 C 0,0 km/h (0 Bft)
30.12.2020 09:10 -1,5 C 4,3 C -2,6 C -1,7 C -2,1 C 0,0 C 87 % 92 % 1004,7 hPa 0,0 l/m 0,0 km/h (0 Bft) W-SW 247 0 min -3,4 C -2,1 C 0,0 km/h (0 Bft)
30.12.2020 09:15 -1,5 C 4,3 C -2,6 C -1,8 C -2,3 C 0,0 C 87 % 92 % 1004,7 hPa 0,0 l/m 0,0 km/h (0 Bft) W-SW 247 0 min -3,4 C -2,3 C 0,0 km/h (0 Bft)
30.12.2020 09:20 -1,5 C 4,3 C -2,4 C -1,7 C -2,2 C 0,0 C 87 % 92 % 1004,7 hPa 0,0 l/m 0,2 km/h (0 Bft) S-SW 202 0 min -3,4 C -2,2 C 0,0 km/h (0 Bft)
30.12.2020 09:25 -1,3 C 4,2 C -2,1 C -1,5 C -1,8 C 0,0 C 87 % 92 % 1004,7 hPa 0,0 l/m 1,0 km/h (0 Bft) S-SO 157 0 min -3,2 C -1,8 C 4,0 km/h (1 Bft)
30.12.2020 09:30 -1,1 C 4,2 C -2,0 C -1,3 C -1,6 C 0,0 C 88 % 92 % 1005,1 hPa 0,0 l/m 1,3 km/h (1 Bft) W-SW 247 0 min -2,8 C -1,6 C 2,1 km/h (1 Bft)
30.12.2020 09:35 -0,9 C 4,2 C -1,9 C -1,1 C -1,5 C 0,0 C 88 % 92 % 1005,1 hPa 0,0 l/m 1,1 km/h (1 Bft) S 180 0 min -2,6 C -1,5 C 5,8 km/h (2 Bft)
30.12.2020 09:40 -0,9 C 4,1 C -1,5 C -1,0 C -1,2 C 0,0 C 88 % 92 % 1005,1 hPa 0,0 l/m 2,4 km/h (1 Bft) N-NO 22 0 min -2,6 C -1,2 C 6,1 km/h (2 Bft)
30.12.2020 09:45 -0,1 C 4,0 C -0,9 C -0,5 C -1,2 C 0,0 C 88 % 92 % 1005,1 hPa 0,0 l/m 3,4 km/h (1 Bft) S 180 0 min -1,8 C -1,2 C 8,7 km/h (2 Bft)
30.12.2020 09:50 0,0 C 4,0 C -0,6 C -0,3 C -0,8 C 0,0 C 88 % 92 % 1005,1 hPa 0,0 l/m 3,1 km/h (1 Bft) O-SO 112 0 min -1,7 C -0,8 C 2,1 km/h (1 Bft)
30.12.2020 09:55 0,6 C 4,0 C -0,3 C 0,4 C 0,1 C 0,0 C 88 % 92 % 1005,1 hPa 0,0 l/m 2,7 km/h (1 Bft) S 180 0 min -1,2 C 0,1 C 5,3 km/h (1 Bft)
30.12.2020 10:00 0,9 C 4,0 C 0,1 C 0,7 C 0,3 C 0,0 C 88 % 93 % 1005,1 hPa 0,0 l/m 3,1 km/h (1 Bft) SW 225 0 min -0,9 C 0,3 C 2,4 km/h (1 Bft)
30.12.2020 10:05 1,5 C 4,0 C 0,4 C 1,2 C 0,7 C 0,0 C 88 % 92 % 1005,1 hPa 0,0 l/m 3,5 km/h (1 Bft) SO 135 0 min -0,3 C 0,7 C 4,8 km/h (1 Bft)
30.12.2020 10:10 1,6 C 4,0 C 0,5 C 1,5 C 1,3 C 0,0 C 87 % 92 % 1005,3 hPa 0,0 l/m 3,1 km/h (1 Bft) S 180 0 min -0,3 C 1,3 C 2,3 km/h (1 Bft)
30.12.2020 10:15 1,9 C 4,0 C 0,7 C 1,9 C 1,9 C 0,0 C 87 % 91 % 1005,3 hPa 0,0 l/m 2,3 km/h (1 Bft) W-SW 247 0 min -0,0 C 1,9 C 2,1 km/h (1 Bft)
30.12.2020 10:20 2,0 C 4,0 C 0,7 C 2,0 C 2,0 C 0,0 C 86 % 91 % 1005,3 hPa 0,0 l/m 1,6 km/h (1 Bft) S-SW 202 0 min -0,1 C 2,0 C 2,4 km/h (1 Bft)
30.12.2020 10:25 2,0 C 4,0 C 0,7 C 2,4 C 2,4 C 0,4 C 86 % 91 % 1005,3 hPa 0,0 l/m 1,4 km/h (1 Bft) S-SW 202 0 min -0,1 C 2,4 C 0,0 km/h (0 Bft)
30.12.2020 10:30 2,1 C 4,0 C 0,8 C 2,5 C 2,5 C 0,4 C 86 % 91 % 1005,5 hPa 0,0 l/m 2,1 km/h (1 Bft) S 180 0 min 0,0 C 2,5 C 3,4 km/h (1 Bft)
30.12.2020 10:35 2,3 C 4,0 C 1,1 C 3,2 C 3,2 C 0,9 C 85 % 91 % 1005,5 hPa 0,0 l/m 1,8 km/h (1 Bft) S 180 0 min 0,0 C 3,2 C 1,8 km/h (1 Bft)
30.12.2020 10:40 2,4 C 4,0 C 1,4 C 3,2 C 3,2 C 0,8 C 85 % 91 % 1005,5 hPa 0,0 l/m 2,4 km/h (1 Bft) S 180 0 min 0,1 C 3,2 C 9,8 km/h (2 Bft)
30.12.2020 10:45 2,7 C 4,0 C 1,6 C 2,8 C 2,8 C 0,1 C 85 % 90 % 1005,5 hPa 0,0 l/m 3,4 km/h (1 Bft) S-SO 157 0 min 0,4 C 2,8 C 2,4 km/h (1 Bft)
30.12.2020 10:50 2,7 C 4,0 C 1,7 C 3,0 C 3,0 C 0,3 C 84 % 90 % 1005,4 hPa 0,0 l/m 3,7 km/h (1 Bft) N-NW 337 0 min 0,3 C 3,0 C 4,0 km/h (1 Bft)
30.12.2020 10:55 2,9 C 4,0 C 1,9 C 3,7 C 3,7 C 0,8 C 84 % 90 % 1005,4 hPa 0,0 l/m 2,4 km/h (1 Bft) O-NO 67 0 min 0,5 C 3,7 C 0,0 km/h (0 Bft)
30.12.2020 11:00 2,9 C 4,0 C 2,1 C 3,7 C 3,7 C 0,8 C 84 % 90 % 1005,4 hPa 0,0 l/m 1,6 km/h (1 Bft) O-NO 67 0 min 0,5 C 3,7 C 6,6 km/h (2 Bft)
30.12.2020 11:05 3,1 C 4,0 C 2,3 C 3,9 C 3,9 C 0,8 C 83 % 89 % 1005,4 hPa 0,0 l/m 1,8 km/h (1 Bft) S 180 0 min 0,5 C 3,9 C 3,7 km/h (1 Bft)
30.12.2020 11:10 3,1 C 4,0 C 2,3 C 3,9 C 3,9 C 0,8 C 83 % 89 % 1005,3 hPa 0,0 l/m 1,8 km/h (1 Bft) S 180 0 min 0,5 C 3,9 C 3,7 km/h (1 Bft)
30.12.2020 11:15 3,5 C 4,0 C 3,1 C 5,3 C 5,3 C 1,8 C 82 % 87 % 1005,3 hPa 0,0 l/m 4,0 km/h (1 Bft) O-SO 112 0 min 0,7 C 5,3 C 8,2 km/h (2 Bft)
30.12.2020 11:20 3,7 C 4,0 C 3,3 C 6,2 C 6,2 C 2,5 C 82 % 87 % 1005,3 hPa 0,0 l/m 3,9 km/h (1 Bft) S-SO 157 0 min 0,9 C 6,2 C 4,7 km/h (1 Bft)
30.12.2020 11:25 3,8 C 3,9 C 3,8 C 8,6 C 8,6 C 4,8 C 82 % 87 % 1005,3 hPa 0,0 l/m 2,6 km/h (1 Bft) SO 135 5 min 1,0 C 8,6 C 5,5 km/h (1 Bft)
30.12.2020 11:30 4,1 C 3,9 C 3,9 C 8,8 C 8,8 C 4,7 C 81 % 86 % 1005,5 hPa 0,0 l/m 3,2 km/h (1 Bft) NO 45 5 min 1,1 C 8,8 C 6,8 km/h (2 Bft)
30.12.2020 11:35 4,3 C 3,9 C 4,1 C 9,7 C 9,7 C 5,4 C 80 % 84 % 1005,5 hPa 0,0 l/m 3,5 km/h (1 Bft) O 90 5 min 1,2 C 9,7 C 0,0 km/h (0 Bft)
30.12.2020 11:40 4,3 C 3,9 C 4,3 C 10,5 C 10,5 C 6,2 C 80 % 84 % 1005,5 hPa 0,0 l/m 3,4 km/h (1 Bft) SW 225 5 min 1,2 C 10,5 C 6,4 km/h (2 Bft)
30.12.2020 11:45 4,5 C 3,9 C 4,6 C 9,3 C 9,3 C 4,8 C 80 % 83 % 1005,5 hPa 0,0 l/m 3,4 km/h (1 Bft) S-SO 157 5 min 1,4 C 9,3 C 6,4 km/h (2 Bft)
30.12.2020 11:50 4,7 C 3,9 C 4,7 C 9,3 C 9,3 C 4,6 C 79 % 83 % 1005,1 hPa 0,0 l/m 4,5 km/h (1 Bft) W-SW 247 5 min 1,4 C 9,3 C 10,8 km/h (2 Bft)
30.12.2020 11:55 4,8 C 3,9 C 4,8 C 9,3 C 9,3 C 4,5 C 78 % 81 % 1005,1 hPa 0,0 l/m 4,8 km/h (1 Bft) W-SW 247 5 min 1,3 C 9,0 C 5,5 km/h (1 Bft)
30.12.2020 12:00 4,8 C 3,9 C 4,9 C 8,9 C 8,9 C 4,1 C 78 % 81 % 1005,1 hPa 0,0 l/m 5,0 km/h (1 Bft) SW 225 5 min 1,3 C 8,5 C 5,1 km/h (1 Bft)
30.12.2020 12:05 5,0 C 3,9 C 5,1 C 8,4 C 8,4 C 3,4 C 78 % 81 % 1005,1 hPa 0,0 l/m 4,5 km/h (1 Bft) S-SW 202 5 min 1,5 C 8,4 C 4,5 km/h (1 Bft)
30.12.2020 12:10 5,1 C 3,9 C 5,2 C 8,5 C 8,5 C 3,4 C 77 % 81 % 1005,0 hPa 0,0 l/m 4,3 km/h (1 Bft) SO 135 5 min 1,4 C 8,5 C 4,3 km/h (1 Bft)
30.12.2020 13:07 5,1 C 3,9 C 5,2 C 8,5 C 8,5 C 3,4 C 77 % 81 % 1005,0 hPa 0,0 l/m 4,3 km/h (1 Bft) SO 135 57 min 1,4 C 8,5 C 4,3 km/h (1 Bft)
30.12.2020 13:12 5,3 C 4,0 C 5,4 C 8,4 C 8,4 C 3,1 C 77 % 79 % 1005,0 hPa 0,0 l/m 4,5 km/h (1 Bft) S 180 0 min 1,6 C 8,4 C 0,0 km/h (0 Bft)
30.12.2020 13:17 5,3 C 4,0 C 5,6 C 8,9 C 8,9 C 3,6 C 77 % 79 % 1005,0 hPa 0,0 l/m 4,3 km/h (1 Bft) SW 225 5 min 1,6 C 8,9 C 1,9 km/h (1 Bft)
30.12.2020 13:22 5,5 C 4,0 C 5,5 C 8,7 C 8,7 C 3,2 C 77 % 79 % 1005,0 hPa 0,0 l/m 4,7 km/h (1 Bft) S-SO 157 0 min 1,8 C 8,4 C 9,7 km/h (2 Bft)
30.12.2020 13:27 5,5 C 4,0 C 5,4 C 7,4 C 7,4 C 1,9 C 76 % 79 % 1005,0 hPa 0,0 l/m 6,1 km/h (2 Bft) SW 225 0 min 1,6 C 6,5 C 6,6 km/h (2 Bft)
30.12.2020 13:32 5,2 C 4,0 C 5,2 C 6,2 C 6,2 C 1,0 C 76 % 79 % 1005,0 hPa 0,0 l/m 6,6 km/h (2 Bft) N 360 0 min 1,3 C 4,9 C 6,8 km/h (2 Bft)
30.12.2020 13:37 5,3 C 4,0 C 5,2 C 6,2 C 6,2 C 0,9 C 76 % 79 % 1005,0 hPa 0,0 l/m 5,5 km/h (1 Bft) S 180 0 min 1,4 C 5,3 C 8,5 km/h (2 Bft)
30.12.2020 13:42 5,3 C 4,0 C 5,2 C 5,8 C 5,8 C 0,5 C 76 % 79 % 1005,0 hPa 0,0 l/m 6,0 km/h (2 Bft) SW 225 0 min 1,4 C 4,6 C 8,4 km/h (2 Bft)
30.12.2020 13:47 5,3 C 4,0 C 5,2 C 5,4 C 5,4 C 0,1 C 76 % 79 % 1005,2 hPa 0,0 l/m 6,9 km/h (2 Bft) SW 225 0 min 1,4 C 3,9 C 9,8 km/h (2 Bft)
30.12.2020 13:52 5,2 C 4,0 C 5,1 C 5,2 C 5,2 C 0,0 C 76 % 79 % 1005,2 hPa 0,0 l/m 6,8 km/h (2 Bft) SW 225 0 min 1,3 C 3,7 C 10,6 km/h (2 Bft)
30.12.2020 13:57 5,2 C 4,0 C 5,1 C 5,2 C 5,2 C 0,0 C 77 % 80 % 1005,2 hPa 0,0 l/m 6,3 km/h (2 Bft) S-SW 202 0 min 1,5 C 3,9 C 6,8 km/h (2 Bft)
30.12.2020 14:02 5,1 C 4,0 C 5,1 C 5,4 C 5,4 C 0,3 C 77 % 80 % 1005,2 hPa 0,0 l/m 6,6 km/h (2 Bft) SW 225 0 min 1,4 C 4,0 C 11,7 km/h (2 Bft)
30.12.2020 14:07 5,1 C 4,0 C 5,1 C 5,7 C 5,7 C 0,6 C 77 % 80 % 1005,2 hPa 0,0 l/m 6,8 km/h (2 Bft) S-SW 202 0 min 1,4 C 4,3 C 7,2 km/h (2 Bft)
30.12.2020 14:12 5,0 C 4,0 C 5,0 C 5,7 C 5,7 C 0,7 C 77 % 80 % 1005,2 hPa 0,0 l/m 6,1 km/h (2 Bft) W-SW 247 0 min 1,3 C 4,5 C 8,9 km/h (2 Bft)
30.12.2020 14:17 5,1 C 4,0 C 4,8 C 5,8 C 5,8 C 0,7 C 77 % 80 % 1005,2 hPa 0,0 l/m 5,8 km/h (2 Bft) S 180 0 min 1,4 C 4,7 C 9,3 km/h (2 Bft)
30.12.2020 14:22 5,1 C 4,0 C 4,7 C 5,0 C 4,9 C 0,0 C 77 % 80 % 1005,2 hPa 0,0 l/m 6,8 km/h (2 Bft) W-SW 247 0 min 1,4 C 3,4 C 9,5 km/h (2 Bft)
30.12.2020 14:27 5,1 C 4,0 C 4,7 C 4,9 C 4,5 C 0,0 C 77 % 80 % 1005,2 hPa 0,0 l/m 7,2 km/h (2 Bft) S-SW 202 0 min 1,4 C 2,8 C 10,6 km/h (2 Bft)
30.12.2020 14:32 4,9 C 4,2 C 4,6 C 4,7 C 4,3 C 0,0 C 77 % 80 % 1005,2 hPa 0,0 l/m 7,4 km/h (2 Bft) S 180 0 min 1,2 C 2,5 C 11,4 km/h (2 Bft)
30.12.2020 14:37 4,8 C 4,2 C 4,6 C 4,6 C 4,3 C 0,0 C 77 % 80 % 1005,2 hPa 0,0 l/m 6,9 km/h (2 Bft) S-SW 202 0 min 1,1 C 2,6 C 4,8 km/h (1 Bft)
30.12.2020 14:42 4,8 C 4,2 C 4,7 C 4,8 C 4,8 C 0,0 C 77 % 80 % 1005,2 hPa 0,0 l/m 6,3 km/h (2 Bft) W 270 0 min 1,1 C 3,4 C 5,1 km/h (1 Bft)
30.12.2020 14:47 5,1 C 4,2 C 4,9 C 5,9 C 5,9 C 0,8 C 77 % 80 % 1005,3 hPa 0,0 l/m 5,5 km/h (1 Bft) SW 225 0 min 1,4 C 4,9 C 4,3 km/h (1 Bft)
30.12.2020 14:52 5,1 C 4,1 C 5,0 C 6,7 C 6,7 C 1,6 C 77 % 79 % 1005,3 hPa 0,0 l/m 4,8 km/h (1 Bft) O-SO 112 0 min 1,4 C 6,1 C 3,7 km/h (1 Bft)
30.12.2020 14:57 5,1 C 4,1 C 4,9 C 7,2 C 7,2 C 2,1 C 77 % 79 % 1005,3 hPa 0,0 l/m 4,7 km/h (1 Bft) SO 135 0 min 1,4 C 6,7 C 7,4 km/h (2 Bft)
30.12.2020 15:02 5,1 C 4,2 C 4,8 C 6,6 C 6,6 C 1,5 C 77 % 79 % 1005,3 hPa 0,0 l/m 4,7 km/h (1 Bft) N-NO 22 0 min 1,4 C 6,0 C 7,2 km/h (2 Bft)
30.12.2020 15:07 5,1 C 4,2 C 4,9 C 6,3 C 6,3 C 1,2 C 77 % 79 % 1005,4 hPa 0,0 l/m 5,0 km/h (1 Bft) S-SO 157 0 min 1,4 C 5,6 C 2,4 km/h (1 Bft)
30.12.2020 14:11 5,1 C 4,2 C 4,9 C 6,3 C 6,3 C 1,2 C 77 % 79 % 1005,4 hPa 0,0 l/m 5,0 km/h (1 Bft) S-SO 157 0 min 1,4 C 5,6 C 2,4 km/h (1 Bft)
30.12.2020 14:15 5,1 C 4,2 C 4,8 C 6,3 C 6,3 C 1,2 C 77 % 79 % 1005,4 hPa 0,0 l/m 4,2 km/h (1 Bft) W-SW 247 0 min 1,4 C 6,3 C 3,2 km/h (1 Bft)
30.12.2020 14:20 5,1 C 4,2 C 4,8 C 6,7 C 6,7 C 1,6 C 77 % 80 % 1005,4 hPa 0,0 l/m 3,5 km/h (1 Bft) S-SO 157 0 min 1,4 C 6,7 C 7,9 km/h (2 Bft)
30.12.2020 14:25 4,9 C 4,2 C 4,7 C 5,8 C 5,8 C 0,9 C 77 % 80 % 1005,4 hPa 0,0 l/m 4,2 km/h (1 Bft) N 360 0 min 1,2 C 5,8 C 5,5 km/h (1 Bft)
30.12.2020 14:30 4,9 C 4,2 C 4,7 C 5,9 C 5,9 C 1,0 C 77 % 80 % 1005,2 hPa 0,0 l/m 3,5 km/h (1 Bft) W-SW 247 0 min 1,2 C 5,9 C 0,0 km/h (0 Bft)
30.12.2020 14:35 4,9 C 4,2 C 4,7 C 6,0 C 6,0 C 1,1 C 77 % 80 % 1005,2 hPa 0,0 l/m 3,1 km/h (1 Bft) S-SO 157 0 min 1,2 C 6,0 C 7,9 km/h (2 Bft)
30.12.2020 14:40 4,9 C 4,3 C 4,7 C 5,6 C 5,6 C 0,7 C 77 % 80 % 1005,2 hPa 0,0 l/m 4,2 km/h (1 Bft) O-SO 112 0 min 1,2 C 5,6 C 3,5 km/h (1 Bft)
30.12.2020 14:45 4,9 C 4,3 C 4,7 C 5,1 C 5,1 C 0,2 C 77 % 80 % 1005,2 hPa 0,0 l/m 5,3 km/h (1 Bft) S-SO 157 0 min 1,2 C 4,1 C 14,3 km/h (3 Bft)
30.12.2020 14:50 4,8 C 4,3 C 4,7 C 4,8 C 4,8 C 0,0 C 77 % 80 % 1005,5 hPa 0,0 l/m 5,3 km/h (1 Bft) S 180 0 min 1,1 C 3,7 C 6,9 km/h (2 Bft)
30.12.2020 14:55 4,8 C 4,3 C 4,6 C 4,7 C 4,5 C 0,0 C 77 % 80 % 1005,5 hPa 0,0 l/m 6,1 km/h (2 Bft) S-SO 157 0 min 1,1 C 3,1 C 8,2 km/h (2 Bft)
30.12.2020 15:00 4,8 C 4,3 C 4,6 C 4,8 C 4,7 C 0,0 C 77 % 80 % 1005,5 hPa 0,0 l/m 5,3 km/h (1 Bft) S-SO 157 0 min 1,1 C 3,6 C 9,3 km/h (2 Bft)
30.12.2020 15:05 4,9 C 4,3 C 4,6 C 4,9 C 4,9 C 0,0 C 77 % 80 % 1005,5 hPa 0,0 l/m 4,3 km/h (1 Bft) SW 225 0 min 1,2 C 4,9 C 8,9 km/h (2 Bft)
30.12.2020 15:10 4,8 C 4,3 C 4,5 C 4,8 C 4,8 C 0,0 C 77 % 80 % 1006,1 hPa 0,0 l/m 4,2 km/h (1 Bft) O-SO 112 0 min 1,1 C 4,8 C 1,9 km/h (1 Bft)
30.12.2020 15:15 4,7 C 4,3 C 4,5 C 4,7 C 4,7 C 0,0 C 77 % 80 % 1006,1 hPa 0,0 l/m 4,2 km/h (1 Bft) S 180 0 min 1,0 C 4,7 C 6,1 km/h (2 Bft)
30.12.2020 15:20 4,7 C 4,3 C 4,5 C 5,3 C 5,3 C 0,6 C 77 % 80 % 1006,1 hPa 0,0 l/m 2,9 km/h (1 Bft) S-SO 157 0 min 1,0 C 5,3 C 3,1 km/h (1 Bft)
30.12.2020 15:25 4,7 C 4,3 C 4,5 C 5,2 C 5,2 C 0,5 C 77 % 80 % 1006,1 hPa 0,0 l/m 2,7 km/h (1 Bft) N-NO 22 0 min 1,0 C 5,2 C 4,3 km/h (1 Bft)
30.12.2020 15:30 4,7 C 4,3 C 4,5 C 5,3 C 5,3 C 0,6 C 77 % 80 % 1006,1 hPa 0,0 l/m 2,6 km/h (1 Bft) S 180 0 min 1,0 C 5,3 C 3,7 km/h (1 Bft)
30.12.2020 15:35 4,7 C 4,3 C 4,3 C 5,2 C 5,2 C 0,5 C 77 % 80 % 1006,1 hPa 0,0 l/m 2,4 km/h (1 Bft) NO 45 0 min 1,0 C 5,2 C 0,0 km/h (0 Bft)
30.12.2020 15:40 4,6 C 4,3 C 4,2 C 5,0 C 5,0 C 0,4 C 77 % 80 % 1006,1 hPa 0,0 l/m 2,1 km/h (1 Bft) S-SO 157 0 min 0,9 C 5,0 C 3,1 km/h (1 Bft)
30.12.2020 15:45 4,6 C 4,3 C 4,1 C 4,8 C 4,8 C 0,2 C 77 % 81 % 1006,1 hPa 0,0 l/m 1,3 km/h (1 Bft) S 180 0 min 0,9 C 4,8 C 2,1 km/h (1 Bft)
30.12.2020 15:50 4,5 C 4,3 C 4,0 C 4,5 C 4,5 C 0,0 C 77 % 81 % 1006,1 hPa 0,0 l/m 1,6 km/h (1 Bft) S-SW 202 0 min 0,8 C 4,5 C 1,6 km/h (1 Bft)
30.12.2020 15:55 4,5 C 4,3 C 3,7 C 4,4 C 4,2 C 0,0 C 77 % 81 % 1006,1 hPa 0,0 l/m 1,8 km/h (1 Bft) O-NO 67 0 min 0,8 C 4,2 C 2,1 km/h (1 Bft)
30.12.2020 16:00 4,3 C 4,3 C 3,7 C 4,2 C 4,0 C 0,0 C 78 % 82 % 1006,1 hPa 0,0 l/m 1,9 km/h (1 Bft) O-NO 67 0 min 0,8 C 4,0 C 3,7 km/h (1 Bft)
30.12.2020 16:05 4,3 C 4,4 C 3,7 C 4,2 C 4,0 C 0,0 C 78 % 82 % 1006,1 hPa 0,0 l/m 2,1 km/h (1 Bft) O-SO 112 0 min 0,8 C 4,0 C 2,3 km/h (1 Bft)
30.12.2020 16:11 4,3 C 4,4 C 3,7 C 4,2 C 4,1 C 0,0 C 78 % 82 % 1006,2 hPa 0,0 l/m 1,8 km/h (1 Bft) N 0 0 min 0,8 C 4,1 C 3,4 km/h (1 Bft)
30.12.2020 16:26 4,2 C 4,4 C 3,8 C 4,2 C 4,2 C 0,0 C 79 % 82 % 1006,2 hPa 0,0 l/m 1,9 km/h (1 Bft) O-SO 112 0 min 0,9 C 4,2 C 3,1 km/h (1 Bft)
30.12.2020 16:27 4,2 C 4,4 C 3,8 C 4,2 C 4,2 C 0,0 C 79 % 82 % 1006,2 hPa 0,0 l/m 1,9 km/h (1 Bft) O-SO 112 0 min 0,9 C 4,2 C 3,1 km/h (1 Bft)
30.12.2020 16:39 4,1 C 4,4 C 3,7 C 4,2 C 4,2 C 0,1 C 79 % 82 % 1006,6 hPa 0,0 l/m 2,1 km/h (1 Bft) W-SW 247 0 min 0,8 C 4,2 C 3,5 km/h (1 Bft)
30.12.2020 16:45 4,0 C 4,4 C 3,7 C 4,2 C 4,2 C 0,2 C 79 % 82 % 1006,6 hPa 0,0 l/m 1,9 km/h (1 Bft) SO 135 0 min 0,7 C 4,2 C 4,5 km/h (1 Bft)
30.12.2020 16:50 4,0 C 4,4 C 3,6 C 4,2 C 4,2 C 0,2 C 79 % 83 % 1006,7 hPa 0,0 l/m 1,6 km/h (1 Bft) W-SW 247 0 min 0,7 C 4,2 C 1,8 km/h (1 Bft)
30.12.2020 16:55 4,0 C 4,4 C 3,6 C 4,0 C 4,0 C 0,0 C 79 % 83 % 1006,7 hPa 0,0 l/m 2,1 km/h (1 Bft) S 180 0 min 0,7 C 4,0 C 6,0 km/h (2 Bft)
30.12.2020 17:00 4,0 C 4,4 C 3,6 C 4,0 C 4,0 C 0,0 C 80 % 83 % 1006,7 hPa 0,0 l/m 2,6 km/h (1 Bft) SO 135 0 min 0,9 C 4,0 C 5,0 km/h (1 Bft)
30.12.2020 17:05 4,0 C 4,4 C 3,5 C 4,0 C 4,0 C 0,0 C 80 % 83 % 1006,7 hPa 0,0 l/m 2,1 km/h (1 Bft) W-SW 247 0 min 0,9 C 4,0 C 0,0 km/h (0 Bft)
30.12.2020 17:10 4,0 C 4,4 C 3,5 C 4,0 C 4,0 C 0,0 C 80 % 83 % 1006,6 hPa 0,0 l/m 1,4 km/h (1 Bft) S-SW 202 0 min 0,9 C 4,0 C 2,4 km/h (1 Bft)
30.12.2020 17:15 4,0 C 4,5 C 3,5 C 4,0 C 4,0 C 0,0 C 80 % 83 % 1006,6 hPa 0,0 l/m 1,4 km/h (1 Bft) S 180 0 min 0,9 C 4,0 C 1,8 km/h (1 Bft)
30.12.2020 17:20 4,0 C 4,5 C 3,5 C 4,0 C 4,0 C 0,0 C 80 % 83 % 1006,6 hPa 0,0 l/m 1,4 km/h (1 Bft) O-NO 67 0 min 0,9 C 4,0 C 0,0 km/h (0 Bft)
30.12.2020 17:25 4,0 C 4,5 C 3,5 C 4,0 C 3,9 C 0,0 C 80 % 84 % 1006,6 hPa 0,0 l/m 1,1 km/h (1 Bft) SO 135 0 min 0,9 C 3,9 C 3,4 km/h (1 Bft)
30.12.2020 17:30 4,0 C 4,5 C 3,4 C 4,0 C 3,9 C 0,0 C 80 % 84 % 1006,6 hPa 0,0 l/m 1,9 km/h (1 Bft) S 180 0 min 0,9 C 3,9 C 5,6 km/h (1 Bft)
30.12.2020 17:35 4,0 C 4,5 C 3,3 C 4,0 C 3,9 C 0,0 C 80 % 84 % 1006,6 hPa 0,0 l/m 2,4 km/h (1 Bft) S 180 0 min 0,9 C 3,9 C 2,7 km/h (1 Bft)
30.12.2020 17:40 3,9 C 4,5 C 3,3 C 3,9 C 3,8 C 0,0 C 80 % 84 % 1006,6 hPa 0,0 l/m 2,1 km/h (1 Bft) S 180 0 min 0,8 C 3,8 C 4,2 km/h (1 Bft)
30.12.2020 17:45 4,0 C 4,6 C 3,2 C 3,9 C 3,7 C 0,0 C 80 % 84 % 1006,6 hPa 0,0 l/m 2,1 km/h (1 Bft) SO 135 0 min 0,9 C 3,7 C 3,9 km/h (1 Bft)
30.12.2020 17:50 3,9 C 4,6 C 3,2 C 3,8 C 3,7 C 0,0 C 80 % 84 % 1007,3 hPa 0,0 l/m 2,7 km/h (1 Bft) S 180 0 min 0,8 C 3,7 C 6,3 km/h (2 Bft)
30.12.2020 17:55 3,9 C 4,6 C 3,2 C 3,7 C 3,4 C 0,0 C 80 % 85 % 1007,3 hPa 0,0 l/m 3,5 km/h (1 Bft) S 180 0 min 0,8 C 3,4 C 3,5 km/h (1 Bft)
30.12.2020 18:00 3,9 C 4,6 C 3,2 C 3,8 C 3,6 C 0,0 C 80 % 85 % 1007,3 hPa 0,0 l/m 3,2 km/h (1 Bft) SO 135 0 min 0,8 C 3,6 C 0,0 km/h (0 Bft)
30.12.2020 18:05 3,9 C 4,6 C 3,1 C 3,8 C 3,7 C 0,0 C 80 % 85 % 1007,3 hPa 0,0 l/m 2,7 km/h (1 Bft) S 180 0 min 0,8 C 3,7 C 2,3 km/h (1 Bft)
30.12.2020 18:11 3,9 C 4,6 C 3,1 C 3,8 C 3,6 C 0,0 C 80 % 85 % 1007,4 hPa 0,0 l/m 3,1 km/h (1 Bft) N 0 0 min 0,8 C 3,6 C 4,2 km/h (1 Bft)
30.12.2020 18:26 3,8 C 4,6 C 3,1 C 3,6 C 3,1 C 0,0 C 80 % 85 % 1007,4 hPa 0,0 l/m 4,0 km/h (1 Bft) S-SO 157 0 min 0,7 C 3,1 C 5,0 km/h (1 Bft)
30.12.2020 18:27 3,8 C 4,6 C 3,1 C 3,6 C 3,1 C 0,0 C 80 % 85 % 1007,4 hPa 0,0 l/m 4,0 km/h (1 Bft) S-SO 157 0 min 0,7 C 3,1 C 5,0 km/h (1 Bft)
30.12.2020 18:39 3,9 C 4,6 C 3,1 C 3,6 C 3,1 C 0,0 C 80 % 85 % 1007,3 hPa 0,0 l/m 4,2 km/h (1 Bft) SO 135 0 min 0,8 C 3,1 C 6,8 km/h (2 Bft)
30.12.2020 18:45 3,9 C 4,6 C 3,1 C 3,5 C 2,8 C 0,0 C 80 % 85 % 1007,3 hPa 0,0 l/m 4,5 km/h (1 Bft) S-SW 202 0 min 0,8 C 2,8 C 4,8 km/h (1 Bft)
30.12.2020 18:50 3,8 C 4,6 C 3,1 C 3,5 C 2,9 C 0,0 C 80 % 85 % 1007,3 hPa 0,0 l/m 4,0 km/h (1 Bft) SO 135 0 min 0,7 C 2,9 C 4,8 km/h (1 Bft)
30.12.2020 18:55 3,8 C 4,6 C 3,1 C 3,5 C 2,8 C 0,0 C 80 % 85 % 1007,3 hPa 0,0 l/m 4,3 km/h (1 Bft) S-SO 157 0 min 0,7 C 2,8 C 3,9 km/h (1 Bft)
30.12.2020 19:00 3,7 C 4,6 C 3,1 C 3,4 C 2,8 C 0,0 C 80 % 85 % 1007,3 hPa 0,0 l/m 4,3 km/h (1 Bft) S-SO 157 0 min 0,6 C 2,8 C 5,3 km/h (1 Bft)
30.12.2020 19:05 3,7 C 4,6 C 3,1 C 3,3 C 2,6 C 0,0 C 80 % 85 % 1007,3 hPa 0,0 l/m 5,1 km/h (1 Bft) S-SO 157 0 min 0,6 C 1,3 C 8,2 km/h (2 Bft)
30.12.2020 19:10 3,9 C 4,6 C 3,1 C 3,4 C 2,3 C 0,0 C 80 % 85 % 1007,4 hPa 0,0 l/m 6,0 km/h (2 Bft) S-SO 157 0 min 0,8 C 0,6 C 5,5 km/h (1 Bft)
30.12.2020 19:15 3,7 C 4,6 C 3,1 C 3,3 C 2,6 C 0,0 C 80 % 85 % 1007,4 hPa 0,0 l/m 5,0 km/h (1 Bft) S-SO 157 0 min 0,6 C 1,4 C 3,7 km/h (1 Bft)
30.12.2020 19:20 3,7 C 4,6 C 3,1 C 3,6 C 3,3 C 0,0 C 80 % 85 % 1007,4 hPa 0,0 l/m 3,4 km/h (1 Bft) O-SO 112 0 min 0,6 C 3,3 C 3,4 km/h (1 Bft)
30.12.2020 19:25 3,7 C 4,6 C 3,1 C 3,6 C 3,5 C 0,0 C 80 % 84 % 1007,4 hPa 0,0 l/m 2,4 km/h (1 Bft) W-SW 247 0 min 0,6 C 3,5 C 4,3 km/h (1 Bft)
30.12.2020 19:30 3,7 C 4,6 C 3,1 C 3,6 C 3,5 C 0,0 C 80 % 84 % 1007,5 hPa 0,0 l/m 2,4 km/h (1 Bft) O-SO 112 0 min 0,6 C 3,5 C 5,0 km/h (1 Bft)
30.12.2020 19:35 3,7 C 4,6 C 3,1 C 3,7 C 3,6 C 0,0 C 80 % 84 % 1007,5 hPa 0,0 l/m 2,7 km/h (1 Bft) SO 135 0 min 0,6 C 3,6 C 5,0 km/h (1 Bft)
30.12.2020 19:40 3,7 C 4,6 C 3,2 C 3,7 C 3,6 C 0,0 C 80 % 83 % 1007,5 hPa 0,0 l/m 2,9 km/h (1 Bft) S-SO 157 0 min 0,6 C 3,6 C 0,0 km/h (0 Bft)
30.12.2020 19:45 3,8 C 4,6 C 3,2 C 3,7 C 3,6 C 0,0 C 80 % 83 % 1007,5 hPa 0,0 l/m 2,7 km/h (1 Bft) SO 135 0 min 0,7 C 3,6 C 4,0 km/h (1 Bft)
30.12.2020 19:50 3,8 C 4,6 C 3,2 C 3,7 C 3,6 C 0,0 C 79 % 83 % 1007,8 hPa 0,0 l/m 2,3 km/h (1 Bft) O 90 0 min 0,5 C 3,6 C 5,0 km/h (1 Bft)
30.12.2020 19:55 3,7 C 4,6 C 3,1 C 3,7 C 3,6 C 0,0 C 79 % 83 % 1007,8 hPa 0,0 l/m 2,6 km/h (1 Bft) W 270 0 min 0,4 C 3,6 C 4,2 km/h (1 Bft)
30.12.2020 20:00 3,7 C 4,6 C 3,1 C 3,6 C 3,4 C 0,0 C 79 % 83 % 1007,8 hPa 0,0 l/m 3,2 km/h (1 Bft) W-SW 247 0 min 0,4 C 3,4 C 5,8 km/h (2 Bft)
30.12.2020 20:05 3,9 C 4,6 C 3,2 C 3,7 C 3,2 C 0,0 C 80 % 83 % 1007,8 hPa 0,0 l/m 3,9 km/h (1 Bft) N-NO 22 0 min 0,8 C 3,2 C 2,9 km/h (1 Bft)
30.12.2020 20:11 3,9 C 4,6 C 3,2 C 3,6 C 3,0 C 0,0 C 80 % 83 % 1007,8 hPa 0,0 l/m 4,2 km/h (1 Bft) N 0 0 min 0,8 C 3,0 C 4,3 km/h (1 Bft)
30.12.2020 20:26 3,8 C 4,6 C 3,1 C 3,7 C 3,4 C 0,0 C 79 % 83 % 1007,8 hPa 0,0 l/m 2,9 km/h (1 Bft) S 180 0 min 0,5 C 3,4 C 6,4 km/h (2 Bft)
30.12.2020 20:27 3,8 C 4,6 C 3,1 C 3,7 C 3,4 C 0,0 C 79 % 83 % 1007,8 hPa 0,0 l/m 2,9 km/h (1 Bft) S 180 0 min 0,5 C 3,4 C 6,4 km/h (2 Bft)
30.12.2020 20:39 3,7 C 4,6 C 3,0 C 3,6 C 3,3 C 0,0 C 79 % 84 % 1008,1 hPa 0,0 l/m 2,3 km/h (1 Bft) N 360 0 min 0,4 C 3,3 C 3,1 km/h (1 Bft)
30.12.2020 20:45 3,6 C 4,6 C 2,9 C 3,4 C 3,1 C 0,0 C 79 % 84 % 1008,1 hPa 0,0 l/m 1,4 km/h (1 Bft) S-SO 157 0 min 0,3 C 3,1 C 4,5 km/h (1 Bft)
30.12.2020 20:50 3,6 C 4,6 C 2,8 C 3,4 C 3,1 C 0,0 C 79 % 84 % 1008,0 hPa 0,0 l/m 1,3 km/h (1 Bft) W 270 0 min 0,3 C 3,1 C 2,4 km/h (1 Bft)
30.12.2020 20:55 3,5 C 4,6 C 2,7 C 3,3 C 2,9 C 0,0 C 79 % 84 % 1008,0 hPa 0,0 l/m 1,6 km/h (1 Bft) N-NO 22 0 min 0,2 C 2,9 C 4,0 km/h (1 Bft)
30.12.2020 21:00 3,5 C 4,6 C 2,7 C 3,3 C 2,8 C 0,0 C 80 % 84 % 1008,0 hPa 0,0 l/m 1,9 km/h (1 Bft) SW 225 0 min 0,4 C 2,8 C 0,0 km/h (0 Bft)
30.12.2020 21:05 3,5 C 4,6 C 2,6 C 3,2 C 2,5 C 0,0 C 80 % 84 % 1008,0 hPa 0,0 l/m 2,1 km/h (1 Bft) SO 135 0 min 0,4 C 2,5 C 1,8 km/h (1 Bft)
30.12.2020 21:10 3,5 C 4,6 C 2,5 C 3,1 C 2,4 C 0,0 C 80 % 84 % 1007,8 hPa 0,0 l/m 2,4 km/h (1 Bft) S 180 0 min 0,4 C 2,4 C 4,7 km/h (1 Bft)
30.12.2020 21:15 3,3 C 4,6 C 2,5 C 2,8 C 1,9 C 0,0 C 80 % 84 % 1007,8 hPa 0,0 l/m 3,2 km/h (1 Bft) S-SO 157 0 min 0,2 C 1,9 C 7,7 km/h (2 Bft)
30.12.2020 21:20 3,3 C 4,6 C 2,5 C 2,8 C 1,7 C 0,0 C 80 % 84 % 1007,8 hPa 0,0 l/m 3,5 km/h (1 Bft) SO 135 0 min 0,2 C 1,7 C 3,7 km/h (1 Bft)
30.12.2020 21:25 3,2 C 4,6 C 2,3 C 2,9 C 2,2 C 0,0 C 80 % 85 % 1007,8 hPa 0,0 l/m 2,6 km/h (1 Bft) O-NO 67 0 min 0,1 C 2,2 C 1,9 km/h (1 Bft)
30.12.2020 21:30 3,2 C 4,6 C 2,3 C 2,8 C 2,1 C 0,0 C 80 % 85 % 1008,1 hPa 0,0 l/m 1,9 km/h (1 Bft) N-NW 337 0 min 0,1 C 2,1 C 2,1 km/h (1 Bft)
30.12.2020 21:35 3,1 C 4,6 C 2,2 C 2,7 C 2,0 C 0,0 C 80 % 85 % 1008,1 hPa 0,0 l/m 2,1 km/h (1 Bft) N-NW 337 0 min -0,0 C 2,0 C 0,0 km/h (0 Bft)
30.12.2020 21:40 3,1 C 4,6 C 2,2 C 2,7 C 2,0 C 0,0 C 80 % 85 % 1008,1 hPa 0,0 l/m 2,1 km/h (1 Bft) S 180 0 min -0,0 C 2,0 C 4,0 km/h (1 Bft)
30.12.2020 21:45 3,0 C 4,6 C 2,2 C 2,7 C 2,2 C 0,0 C 81 % 85 % 1008,1 hPa 0,0 l/m 2,6 km/h (1 Bft) O-NO 67 0 min 0,1 C 2,2 C 3,5 km/h (1 Bft)
30.12.2020 21:50 3,0 C 4,6 C 2,3 C 2,8 C 2,3 C 0,0 C 81 % 85 % 1008,0 hPa 0,0 l/m 2,3 km/h (1 Bft) NO 45 0 min 0,1 C 2,3 C 1,8 km/h (1 Bft)
30.12.2020 21:55 3,0 C 4,6 C 2,3 C 2,8 C 2,4 C 0,0 C 81 % 86 % 1008,0 hPa 0,0 l/m 1,4 km/h (1 Bft) SO 135 0 min 0,1 C 2,4 C 5,8 km/h (2 Bft)
30.12.2020 22:00 3,0 C 4,6 C 2,4 C 2,8 C 2,5 C 0,0 C 81 % 86 % 1008,0 hPa 0,0 l/m 2,1 km/h (1 Bft) S-SO 157 0 min 0,1 C 2,5 C 7,4 km/h (2 Bft)
30.12.2020 22:05 3,2 C 4,6 C 2,5 C 2,8 C 2,1 C 0,0 C 81 % 86 % 1008,0 hPa 0,0 l/m 3,9 km/h (1 Bft) N-NW 337 0 min 0,3 C 2,1 C 1,9 km/h (1 Bft)
30.12.2020 22:11 3,2 C 4,6 C 2,6 C 2,8 C 1,9 C 0,0 C 81 % 85 % 1008,2 hPa 0,0 l/m 4,5 km/h (1 Bft) N 0 0 min 0,3 C 1,9 C 4,2 km/h (1 Bft)
30.12.2020 22:27 3,2 C 4,6 C 2,6 C 3,1 C 2,8 C 0,0 C 81 % 85 % 1008,2 hPa 0,0 l/m 2,3 km/h (1 Bft) NO 45 0 min 0,3 C 2,8 C 2,1 km/h (1 Bft)
30.12.2020 22:30 3,3 C 4,6 C 2,5 C 3,1 C 2,7 C 0,0 C 81 % 85 % 1008,3 hPa 0,0 l/m 2,1 km/h (1 Bft) N-NO 22 0 min 0,4 C 2,7 C 3,7 km/h (1 Bft)
30.12.2020 22:35 3,2 C 4,6 C 2,6 C 3,0 C 2,7 C 0,0 C 81 % 85 % 1008,3 hPa 0,0 l/m 2,3 km/h (1 Bft) W-SW 247 0 min 0,3 C 2,7 C 3,4 km/h (1 Bft)
30.12.2020 22:40 3,2 C 4,6 C 2,6 C 3,1 C 2,8 C 0,0 C 81 % 85 % 1008,3 hPa 0,0 l/m 2,3 km/h (1 Bft) W 270 0 min 0,3 C 2,8 C 3,7 km/h (1 Bft)
30.12.2020 22:45 3,3 C 4,6 C 2,7 C 3,1 C 2,8 C 0,0 C 81 % 85 % 1008,3 hPa 0,0 l/m 3,1 km/h (1 Bft) SW 225 0 min 0,4 C 2,8 C 6,4 km/h (2 Bft)
30.12.2020 22:50 3,3 C 4,6 C 2,7 C 3,2 C 2,9 C 0,0 C 81 % 85 % 1008,2 hPa 0,0 l/m 3,1 km/h (1 Bft) W-NW 292 0 min 0,4 C 2,9 C 5,1 km/h (1 Bft)
30.12.2020 22:55 3,4 C 4,6 C 2,8 C 3,2 C 2,9 C 0,0 C 81 % 85 % 1008,2 hPa 0,0 l/m 3,1 km/h (1 Bft) SO 135 0 min 0,5 C 2,9 C 3,7 km/h (1 Bft)
30.12.2020 23:00 3,3 C 4,6 C 2,7 C 3,2 C 3,1 C 0,0 C 81 % 85 % 1008,2 hPa 0,0 l/m 2,6 km/h (1 Bft) W 270 0 min 0,4 C 3,1 C 4,7 km/h (1 Bft)
30.12.2020 23:05 3,3 C 4,6 C 2,7 C 3,2 C 3,1 C 0,0 C 81 % 85 % 1008,2 hPa 0,0 l/m 2,6 km/h (1 Bft) SO 135 0 min 0,4 C 3,1 C 3,2 km/h (1 Bft)
30.12.2020 23:10 3,3 C 4,6 C 2,7 C 3,2 C 3,0 C 0,0 C 81 % 85 % 1008,6 hPa 0,0 l/m 2,6 km/h (1 Bft) S 180 0 min 0,4 C 3,0 C 5,8 km/h (2 Bft)
30.12.2020 23:15 3,3 C 4,6 C 2,6 C 3,1 C 2,7 C 0,0 C 81 % 85 % 1008,6 hPa 0,0 l/m 2,9 km/h (1 Bft) S 180 0 min 0,4 C 2,7 C 6,9 km/h (2 Bft)
30.12.2020 23:20 3,2 C 4,6 C 2,5 C 2,9 C 2,3 C 0,0 C 81 % 85 % 1008,6 hPa 0,0 l/m 3,2 km/h (1 Bft) NW 315 0 min 0,3 C 2,3 C 7,6 km/h (2 Bft)
30.12.2020 23:25 3,2 C 4,6 C 2,4 C 3,0 C 2,5 C 0,0 C 81 % 85 % 1008,6 hPa 0,0 l/m 2,4 km/h (1 Bft) SO 135 0 min 0,3 C 2,5 C 0,0 km/h (0 Bft)
30.12.2020 23:30 3,2 C 4,6 C 2,3 C 2,9 C 2,3 C 0,0 C 81 % 85 % 1008,5 hPa 0,0 l/m 2,7 km/h (1 Bft) S-SW 202 0 min 0,3 C 2,3 C 5,5 km/h (1 Bft)
30.12.2020 23:35 3,2 C 4,6 C 2,2 C 2,7 C 1,7 C 0,0 C 81 % 85 % 1008,5 hPa 0,0 l/m 3,5 km/h (1 Bft) O-NO 67 0 min 0,3 C 1,7 C 7,7 km/h (2 Bft)
30.12.2020 23:40 3,2 C 4,6 C 2,1 C 2,7 C 1,7 C 0,0 C 81 % 86 % 1008,5 hPa 0,0 l/m 3,5 km/h (1 Bft) W-NW 292 0 min 0,3 C 1,7 C 2,7 km/h (1 Bft)
30.12.2020 23:45 3,1 C 4,6 C 2,0 C 2,6 C 1,7 C 0,0 C 81 % 86 % 1008,5 hPa 0,0 l/m 3,2 km/h (1 Bft) O-NO 67 0 min 0,2 C 1,7 C 8,0 km/h (2 Bft)
30.12.2020 23:50 3,1 C 4,6 C 2,1 C 2,7 C 1,9 C 0,0 C 81 % 86 % 1008,6 hPa 0,0 l/m 3,1 km/h (1 Bft) O-SO 112 0 min 0,2 C 1,9 C 2,7 km/h (1 Bft)
30.12.2020 23:55 3,1 C 4,6 C 2,1 C 2,7 C 1,8 C 0,0 C 81 % 86 % 1008,6 hPa 0,0 l/m 3,4 km/h (1 Bft) S-SW 202 0 min 0,2 C 1,8 C 13,2 km/h (3 Bft)
_ Min-Zeit 08:35 11:25 08:40 08:35 08:30 00:00 13:27 13:12 00:00 - 01:15 - - - 08:35 08:30 00:00
Minimum _ -2,0 C 3,9 C -3,2 C -2,4 C -3,2 C 0,0 C 76 % 79 % 1001,9 hPa - 0,0 km/h (0 Bft) - - - -4,2 C -3,2 C 0,0 km/h (0 Bft)
_ Max-Zeit 13:22 17:45 13:17 11:40 11:40 11:40 09:30 10:00 23:10 00:00 14:32 - - 13:07 13:22 11:40 14:45
Maximum _ 5,5 C 4,6 C 5,6 C 10,5 C 10,5 C 6,2 C 88 % 93 % 1008,6 hPa 0,0 l/m 7,4 km/h
S (2 Bft)
- - 57 min 1,8 C 10,5 C 14,3 km/h
S-SO (3 Bft)
Durchschnitt _ 2,8 C 4,3 C 2,1 C 3,1 C 2,7 C 0,5 C 81 % 85 % 1005,2 hPa #0,0 l/m 2,6 km/h (1 Bft) S - #1:52 h -0,2 C 2,5 C 3,3 km/h (1 Bft)
2020 www.wetterstation-wechselburg.de